• In Latvia
  • List of Countries
  • For 7 days
  • Water Temperature
  • Satellite Maps
  • Weather Map
  • Weather Widgets
  • user-avatar
    Login

    Hourly Weather Dahnovici

    Today, 20 August, Monday

    Time Temperature Precipitation Wind Pressure Humidity
    00:00 +23°C° 0 mm 1 mps 747 mmHg 66%
    01:00 +22°C° 0 mm 1 mps 747 mmHg 69%
    02:00 +22°C° 0 mm 1 mps 747 mmHg 72%
    03:00 +21°C° 0 mm 1 mps 746 mmHg 74%
    04:00 +21°C° 0 mm 1 mps 746 mmHg 77%
    05:00 +20°C° 0 mm 1 mps 746 mmHg 79%
    06:00 +22°C° 0 mm 1 mps 746 mmHg 73%
    07:00 +24°C° 0 mm 2 mps 746 mmHg 67%
    08:00 +25°C° 0 mm 1 mps 747 mmHg 60%
    09:00 +27°C° 0 mm 1 mps 747 mmHg 54%
    10:00 +29°C° 0 mm 2 mps 747 mmHg 47%
    11:00 +31°C° 0 mm 2 mps 747 mmHg 41%
    12:00 +31°C° 0 mm 1 mps 746 mmHg 38%
    13:00 +32°C° 0 mm 1 mps 746 mmHg 36%
    14:00 +33°C° 0 mm 1 mps 746 mmHg 33%
    15:00 +32°C° 0 mm 1 mps 746 mmHg 34%
    16:00 +32°C° 0 mm 1 mps 745 mmHg 35%
    17:00 +32°C° 0 mm 1 mps 745 mmHg 35%
    18:00 +30°C° 0 mm 1 mps 745 mmHg 38%
    19:00 +28°C° 0 mm 1 mps 745 mmHg 40%
    20:00 +27°C° 0 mm 1 mps 745 mmHg 43%
    21:00 +26°C° 0 mm 1 mps 745 mmHg 44%
    22:00 +25°C° 0 mm 1 mps 745 mmHg 45%
    23:00 +24°C° 0 mm 2 mps 745 mmHg 46%

    Tomorrow, 21 August, Tuesday

    Time Temperature Precipitation Wind Pressure Humidity
    00:00 +23°C° 0 mm 2 mps 745 mmHg 46%
    01:00 +23°C° 0 mm 2 mps 745 mmHg 47%
    02:00 +21°C° 0 mm 2 mps 745 mmHg 47%
    03:00 +22°C° 0 mm 1 mps 745 mmHg 49%
    04:00 +21°C° 0 mm 1 mps 745 mmHg 51%
    05:00 +21°C° 0 mm 1 mps 745 mmHg 53%
    06:00 +23°C° 0 mm 1 mps 745 mmHg 50%
    07:00 +25°C° 0 mm 1 mps 745 mmHg 47%
    08:00 +27°C° 0 mm 1 mps 746 mmHg 44%
    09:00 +28°C° 0 mm 1 mps 746 mmHg 41%
    10:00 +30°C° 0 mm 1 mps 746 mmHg 38%
    11:00 +32°C° 0 mm 2 mps 746 mmHg 36%
    12:00 +32°C° 0 mm 2 mps 745 mmHg 34%
    13:00 +34°C° 0 mm 2 mps 745 mmHg 32%
    14:00 +34°C° 0 mm 2 mps 745 mmHg 30%
    15:00 +34°C° 0 mm 2 mps 745 mmHg 30%
    16:00 +34°C° 0 mm 2 mps 745 mmHg 31%
    17:00 +34°C° 0 mm 2 mps 745 mmHg 31%
    18:00 +31°C° 0 mm 2 mps 745 mmHg 37%
    19:00 +29°C° 0 mm 2 mps 745 mmHg 42%
    20:00 +27°C° 0 mm 2 mps 745 mmHg 47%
    21:00 +26°C° 0 mm 3 mps 746 mmHg 52%
    22:00 +26°C° 0 mm 3 mps 746 mmHg 58%
    23:00 +25°C° 0 mm 3 mps 746 mmHg 64%

    Day after tomorrow, 22 August, Wednesday

    Time Temperature Precipitation Wind Pressure Humidity
    00:00 +24°C° 0 mm 3 mps 746 mmHg 68%
    01:00 +22°C° 0 mm 4 mps 746 mmHg 72%
    02:00 +22°C° 0 mm 4 mps 747 mmHg 76%
    03:00 +21°C° 0 mm 3 mps 747 mmHg 77%
    04:00 +20°C° 0 mm 3 mps 747 mmHg 79%
    05:00 +19°C° 0 mm 3 mps 747 mmHg 80%
    06:00 +21°C° 0 mm 3 mps 747 mmHg 72%
    07:00 +22°C° 0 mm 4 mps 747 mmHg 64%
    08:00 +23°C° 0 mm 4 mps 748 mmHg 56%
    09:00 +26°C° 0 mm 4 mps 748 mmHg 50%
    10:00 +27°C° 0 mm 4 mps 748 mmHg 44%
    11:00 +29°C° 0 mm 5 mps 748 mmHg 38%
    12:00 +29°C° 0 mm 4 mps 748 mmHg 36%
    13:00 +30°C° 0 mm 4 mps 748 mmHg 34%
    14:00 +32°C° 0 mm 4 mps 748 mmHg 32%
    15:00 +30°C° 0 mm 4 mps 748 mmHg 32%
    16:00 +30°C° 0 mm 4 mps 748 mmHg 33%
    17:00 +30°C° 0 mm 4 mps 748 mmHg 33%
    18:00 +28°C° 0 mm 4 mps 748 mmHg 39%
    19:00 +26°C° 0 mm 3 mps 748 mmHg 44%
    20:00 +24°C° 0 mm 3 mps 748 mmHg 49%
    21:00 +22°C° 0 mm 3 mps 749 mmHg 52%
    22:00 +21°C° 0 mm 3 mps 749 mmHg 56%
    23:00 +20°C° 0 mm 3 mps 749 mmHg 59%

    23 August, Thursday

    Time Temperature Precipitation Wind Pressure Humidity
    00:00 +19°C° 0 mm 3 mps 749 mmHg 60%
    01:00 +19°C° 0 mm 3 mps 749 mmHg 62%
    02:00 +18°C° 0 mm 3 mps 749 mmHg 64%
    03:00 +18°C° 0 mm 2 mps 749 mmHg 64%
    04:00 +17°C° 0 mm 2 mps 749 mmHg 65%
    05:00 +17°C° 0 mm 2 mps 749 mmHg 65%
    06:00 +18°C° 0 mm 2 mps 749 mmHg 60%
    07:00 +20°C° 0 mm 3 mps 749 mmHg 55%
    08:00 +22°C° 0 mm 3 mps 749 mmHg 49%
    09:00 +24°C° 0 mm 3 mps 749 mmHg 45%
    10:00 +26°C° 0 mm 3 mps 749 mmHg 40%
    11:00 +27°C° 0 mm 3 mps 749 mmHg 36%
    12:00 +28°C° 0 mm 3 mps 748 mmHg 33%
    13:00 +29°C° 0 mm 3 mps 748 mmHg 31%
    14:00 +30°C° 0 mm 3 mps 748 mmHg 29%
    15:00 +30°C° 0 mm 3 mps 747 mmHg 28%
    16:00 +30°C° 0 mm 3 mps 747 mmHg 28%
    17:00 +30°C° 0 mm 3 mps 747 mmHg 28%
    18:00 +28°C° 0 mm 3 mps 747 mmHg 32%
    19:00 +25°C° 0 mm 3 mps 747 mmHg 36%
    20:00 +23°C° 0 mm 2 mps 747 mmHg 40%
    21:00 +21°C° 0 mm 2 mps 747 mmHg 41%
    22:00 +20°C° 0 mm 2 mps 747 mmHg 43%
    23:00 +19°C° 0 mm 2 mps 747 mmHg 45%

    24 August, Friday

    Time Temperature Precipitation Wind Pressure Humidity
    00:00 +20°C° 0 mm 1 mps 747 mmHg 46%
    01:00 +19°C° 0 mm 1 mps 747 mmHg 47%
    02:00 +19°C° 0 mm 1 mps 746 mmHg 48%
    03:00 +18°C° 0 mm 1 mps 746 mmHg 48%
    04:00 +18°C° 0 mm 1 mps 746 mmHg 48%
    05:00 +16°C° 0 mm 1 mps 746 mmHg 48%
    06:00 +19°C° 0 mm 1 mps 746 mmHg 44%
    07:00 +20°C° 0 mm 2 mps 746 mmHg 40%
    08:00 +23°C° 0 mm 2 mps 747 mmHg 36%
    09:00 +25°C° 0 mm 2 mps 746 mmHg 33%
    10:00 +27°C° 0 mm 3 mps 746 mmHg 30%
    11:00 +29°C° 0 mm 3 mps 746 mmHg 27%
    12:00 +30°C° 0 mm 3 mps 745 mmHg 26%
    13:00 +30°C° 0 mm 3 mps 745 mmHg 24%
    14:00 +31°C° 0 mm 3 mps 745 mmHg 23%
    15:00 +31°C° 0 mm 2 mps 744 mmHg 23%
    16:00 +31°C° 0 mm 2 mps 744 mmHg 23%
    17:00 +31°C° 0 mm 2 mps 744 mmHg 23%
    18:00 +29°C° 0 mm 2 mps 744 mmHg 26%
    19:00 +26°C° 0 mm 2 mps 744 mmHg 29%
    20:00 +24°C° 0 mm 2 mps 744 mmHg 32%
    21:00 +23°C° 0 mm 2 mps 744 mmHg 33%
    22:00 +21°C° 0 mm 2 mps 744 mmHg 34%
    23:00 +21°C° 0 mm 1 mps 743 mmHg 35%

    25 August, Saturday

    Time Temperature Precipitation Wind Pressure Humidity
    00:00 +20°C° 0 mm 1 mps 743 mmHg 36%
    01:00 +20°C° 0 mm 1 mps 743 mmHg 36%
    02:00 +19°C° 0 mm 1 mps 743 mmHg 37%
    03:00 +19°C° 0 mm 1 mps 743 mmHg 38%
    04:00 +19°C° 0 mm 1 mps 743 mmHg 38%
    05:00 +18°C° 0 mm 1 mps 742 mmHg 39%
    06:00 +21°C° 0 mm 1 mps 742 mmHg 36%
    07:00 +23°C° 0 mm 1 mps 742 mmHg 34%
    08:00 +25°C° 0 mm 2 mps 743 mmHg 32%
    09:00 +27°C° 0 mm 2 mps 742 mmHg 30%
    10:00 +29°C° 0 mm 2 mps 742 mmHg 29%
    11:00 +31°C° 0 mm 3 mps 742 mmHg 28%
    12:00 +33°C° 0 mm 3 mps 742 mmHg 26%
    13:00 +33°C° 0 mm 3 mps 741 mmHg 25%
    14:00 +34°C° 0 mm 3 mps 741 mmHg 24%
    15:00 +34°C° 0 mm 3 mps 741 mmHg 25%
    16:00 +34°C° 0 mm 3 mps 741 mmHg 26%
    17:00 +34°C° 0 mm 3 mps 740 mmHg 27%
    18:00 +30°C° 0 mm 3 mps 740 mmHg 33%
    19:00 +28°C° 0 mm 3 mps 741 mmHg 38%
    20:00 +26°C° 0 mm 3 mps 741 mmHg 44%
    21:00 +25°C° 0 mm 3 mps 741 mmHg 52%
    22:00 +24°C° 0 mm 2 mps 741 mmHg 59%
    23:00 +21°C° 0 mm 2 mps 741 mmHg 67%
    Show more